owner,sensor,date,latitude,longitude,sea_surface_height_above_sea_level,qcFlag 
TCOON,ioos:station:TCOON:518:1,2017-03-01T00:18:00Z,29.5150,-94.5133,1.442,1111122 
TCOON,ioos:station:TCOON:518:1,2017-03-01T01:18:00Z,29.5150,-94.5133,1.503,1111122 
TCOON,ioos:station:TCOON:518:1,2017-03-01T02:18:00Z,29.5150,-94.5133,1.534,1111122 
TCOON,ioos:station:TCOON:518:1,2017-03-01T03:18:00Z,29.5150,-94.5133,1.554,1111122 
TCOON,ioos:station:TCOON:518:1,2017-03-01T04:18:00Z,29.5150,-94.5133,1.544,1111122 
TCOON,ioos:station:TCOON:518:1,2017-03-01T05:18:00Z,29.5150,-94.5133,1.488,1111122 
TCOON,ioos:station:TCOON:518:1,2017-03-01T06:18:00Z,29.5150,-94.5133,1.459,1111122 
TCOON,ioos:station:TCOON:518:1,2017-03-01T07:18:00Z,29.5150,-94.5133,1.475,1111122 
TCOON,ioos:station:TCOON:518:1,2017-03-01T08:18:00Z,29.5150,-94.5133,1.467,1111122 
TCOON,ioos:station:TCOON:518:1,2017-03-01T09:18:00Z,29.5150,-94.5133,1.491,1111122 
TCOON,ioos:station:TCOON:518:1,2017-03-01T10:18:00Z,29.5150,-94.5133,1.477,1111122 
TCOON,ioos:station:TCOON:518:1,2017-03-01T11:18:00Z,29.5150,-94.5133,1.498,1111122 
TCOON,ioos:station:TCOON:518:1,2017-03-01T12:18:00Z,29.5150,-94.5133,1.568,1111122 
TCOON,ioos:station:TCOON:518:1,2017-03-01T13:18:00Z,29.5150,-94.5133,1.654,1111122 
TCOON,ioos:station:TCOON:518:1,2017-03-01T14:18:00Z,29.5150,-94.5133,1.643,1111122 
TCOON,ioos:station:TCOON:518:1,2017-03-01T15:18:00Z,29.5150,-94.5133,1.638,1111122 
TCOON,ioos:station:TCOON:518:1,2017-03-01T16:18:00Z,29.5150,-94.5133,1.553,1111122 
TCOON,ioos:station:TCOON:518:1,2017-03-01T17:18:00Z,29.5150,-94.5133,1.48,1111122 
TCOON,ioos:station:TCOON:518:1,2017-03-01T18:18:00Z,29.5150,-94.5133,1.402,1111122 
TCOON,ioos:station:TCOON:518:1,2017-03-01T19:18:00Z,29.5150,-94.5133,1.377,1111122 
TCOON,ioos:station:TCOON:518:1,2017-03-01T20:18:00Z,29.5150,-94.5133,1.366,1111122 
TCOON,ioos:station:TCOON:518:1,2017-03-01T21:18:00Z,29.5150,-94.5133,1.347,1111122 
TCOON,ioos:station:TCOON:518:1,2017-03-01T22:18:00Z,29.5150,-94.5133,1.323,1111122 
TCOON,ioos:station:TCOON:518:1,2017-03-02T00:18:00Z,29.5150,-94.5133,1.384,1111122 
TCOON,ioos:station:TCOON:518:1,2017-03-02T01:18:00Z,29.5150,-94.5133,1.484,1111122 
TCOON,ioos:station:TCOON:518:1,2017-03-02T02:18:00Z,29.5150,-94.5133,1.471,1111122 
TCOON,ioos:station:TCOON:518:1,2017-03-02T03:18:00Z,29.5150,-94.5133,1.348,1111122 
TCOON,ioos:station:TCOON:518:1,2017-03-02T04:18:00Z,29.5150,-94.5133,1.294,1111122 
TCOON,ioos:station:TCOON:518:1,2017-03-02T05:18:00Z,29.5150,-94.5133,1.215,1111122 
TCOON,ioos:station:TCOON:518:1,2017-03-02T06:18:00Z,29.5150,-94.5133,1.135,1111122 
TCOON,ioos:station:TCOON:518:1,2017-03-02T07:18:00Z,29.5150,-94.5133,1.066,1111122 
TCOON,ioos:station:TCOON:518:1,2017-03-02T08:18:00Z,29.5150,-94.5133,1.008,1111122 
TCOON,ioos:station:TCOON:518:1,2017-03-02T09:18:00Z,29.5150,-94.5133,0.982,1111122 
TCOON,ioos:station:TCOON:518:1,2017-03-02T10:18:00Z,29.5150,-94.5133,0.945,1111122 
TCOON,ioos:station:TCOON:518:1,2017-03-02T11:18:00Z,29.5150,-94.5133,0.921,1111122 
TCOON,ioos:station:TCOON:518:1,2017-03-02T12:18:00Z,29.5150,-94.5133,0.903,1111122 
TCOON,ioos:station:TCOON:518:1,2017-03-02T13:18:00Z,29.5150,-94.5133,1.021,1111122 
TCOON,ioos:station:TCOON:518:1,2017-03-02T14:18:00Z,29.5150,-94.5133,1.113,1111122 
TCOON,ioos:station:TCOON:518:1,2017-03-02T15:18:00Z,29.5150,-94.5133,1.149,1111122 
TCOON,ioos:station:TCOON:518:1,2017-03-02T16:18:00Z,29.5150,-94.5133,1.13,1111122 
TCOON,ioos:station:TCOON:518:1,2017-03-02T17:18:00Z,29.5150,-94.5133,1.098,1111122 
TCOON,ioos:station:TCOON:518:1,2017-03-02T18:18:00Z,29.5150,-94.5133,1.128,1111122 
TCOON,ioos:station:TCOON:518:1,2017-03-02T19:18:00Z,29.5150,-94.5133,1.149,1111122 
TCOON,ioos:station:TCOON:518:1,2017-03-02T20:18:00Z,29.5150,-94.5133,1.282,1111122 
TCOON,ioos:station:TCOON:518:1,2017-03-02T21:18:00Z,29.5150,-94.5133,1.348,1111122 
TCOON,ioos:station:TCOON:518:1,2017-03-02T22:18:00Z,29.5150,-94.5133,1.366,1111122 
TCOON,ioos:station:TCOON:518:1,2017-03-02T23:18:00Z,29.5150,-94.5133,1.373,1111122 
TCOON,ioos:station:TCOON:518:1,2017-03-03T00:18:00Z,29.5150,-94.5133,1.412,1111122 
TCOON,ioos:station:TCOON:518:1,2017-03-03T01:18:00Z,29.5150,-94.5133,1.473,1111122 
TCOON,ioos:station:TCOON:518:1,2017-03-03T02:18:00Z,29.5150,-94.5133,1.496,1111122 
TCOON,ioos:station:TCOON:518:1,2017-03-03T03:18:00Z,29.5150,-94.5133,1.505,1111122 
TCOON,ioos:station:TCOON:518:1,2017-03-03T04:18:00Z,29.5150,-94.5133,1.481,1111122 
TCOON,ioos:station:TCOON:518:1,2017-03-03T05:18:00Z,29.5150,-94.5133,1.434,1111122 
TCOON,ioos:station:TCOON:518:1,2017-03-03T06:18:00Z,29.5150,-94.5133,1.367,1111122 
TCOON,ioos:station:TCOON:518:1,2017-03-03T07:18:00Z,29.5150,-94.5133,1.296,1111122 
TCOON,ioos:station:TCOON:518:1,2017-03-03T08:18:00Z,29.5150,-94.5133,1.219,1111122 
TCOON,ioos:station:TCOON:518:1,2017-03-03T09:18:00Z,29.5150,-94.5133,1.15,1111122 
TCOON,ioos:station:TCOON:518:1,2017-03-03T10:18:00Z,29.5150,-94.5133,1.149,1111122 
TCOON,ioos:station:TCOON:518:1,2017-03-03T11:18:00Z,29.5150,-94.5133,1.118,1111122 
TCOON,ioos:station:TCOON:518:1,2017-03-03T12:18:00Z,29.5150,-94.5133,1.129,1111122 
TCOON,ioos:station:TCOON:518:1,2017-03-03T13:18:00Z,29.5150,-94.5133,1.169,1111122 
TCOON,ioos:station:TCOON:518:1,2017-03-03T14:18:00Z,29.5150,-94.5133,1.243,1111122 
TCOON,ioos:station:TCOON:518:1,2017-03-03T15:18:00Z,29.5150,-94.5133,1.261,1111122 
TCOON,ioos:station:TCOON:518:1,2017-03-03T16:18:00Z,29.5150,-94.5133,1.298,1111122 
TCOON,ioos:station:TCOON:518:1,2017-03-03T17:18:00Z,29.5150,-94.5133,1.215,1111122 
TCOON,ioos:station:TCOON:518:1,2017-03-03T18:18:00Z,29.5150,-94.5133,1.233,1111122 
TCOON,ioos:station:TCOON:518:1,2017-03-03T19:18:00Z,29.5150,-94.5133,1.219,1111122 
TCOON,ioos:station:TCOON:518:1,2017-03-03T20:18:00Z,29.5150,-94.5133,1.249,1111122 
TCOON,ioos:station:TCOON:518:1,2017-03-03T21:18:00Z,29.5150,-94.5133,1.33,1111122 
TCOON,ioos:station:TCOON:518:1,2017-03-03T22:18:00Z,29.5150,-94.5133,1.408,1111122 
TCOON,ioos:station:TCOON:518:1,2017-03-04T00:18:00Z,29.5150,-94.5133,1.573,1111122 
TCOON,ioos:station:TCOON:518:1,2017-03-04T01:18:00Z,29.5150,-94.5133,1.615,1111122 
TCOON,ioos:station:TCOON:518:1,2017-03-04T02:18:00Z,29.5150,-94.5133,1.647,1111122 
TCOON,ioos:station:TCOON:518:1,2017-03-04T03:18:00Z,29.5150,-94.5133,1.672,1111122 
TCOON,ioos:station:TCOON:518:1,2017-03-04T04:18:00Z,29.5150,-94.5133,1.65,1111122 
TCOON,ioos:station:TCOON:518:1,2017-03-04T05:18:00Z,29.5150,-94.5133,1.625,1111122 
TCOON,ioos:station:TCOON:518:1,2017-03-04T06:18:00Z,29.5150,-94.5133,1.613,1111122 
TCOON,ioos:station:TCOON:518:1,2017-03-04T07:18:00Z,29.5150,-94.5133,1.584,1111122 
TCOON,ioos:station:TCOON:518:1,2017-03-04T08:18:00Z,29.5150,-94.5133,1.537,1111122 
TCOON,ioos:station:TCOON:518:1,2017-03-04T09:18:00Z,29.5150,-94.5133,1.48,1111122 
TCOON,ioos:station:TCOON:518:1,2017-03-04T10:18:00Z,29.5150,-94.5133,1.428,1111122 
TCOON,ioos:station:TCOON:518:1,2017-03-04T11:18:00Z,29.5150,-94.5133,1.411,1111122 
TCOON,ioos:station:TCOON:518:1,2017-03-04T12:18:00Z,29.5150,-94.5133,1.362,1111122 
TCOON,ioos:station:TCOON:518:1,2017-03-04T13:18:00Z,29.5150,-94.5133,1.371,1111122 
TCOON,ioos:station:TCOON:518:1,2017-03-04T14:18:00Z,29.5150,-94.5133,1.494,1111122 
TCOON,ioos:station:TCOON:518:1,2017-03-04T15:18:00Z,29.5150,-94.5133,1.518,1111122 
TCOON,ioos:station:TCOON:518:1,2017-03-04T16:18:00Z,29.5150,-94.5133,1.51,1111122 
TCOON,ioos:station:TCOON:518:1,2017-03-04T17:18:00Z,29.5150,-94.5133,1.475,1111122 
TCOON,ioos:station:TCOON:518:1,2017-03-04T18:18:00Z,29.5150,-94.5133,1.463,1111122 
TCOON,ioos:station:TCOON:518:1,2017-03-04T19:18:00Z,29.5150,-94.5133,1.451,1111122 
TCOON,ioos:station:TCOON:518:1,2017-03-04T20:18:00Z,29.5150,-94.5133,1.575,1111122 
TCOON,ioos:station:TCOON:518:1,2017-03-04T21:18:00Z,29.5150,-94.5133,1.663,1111122 
TCOON,ioos:station:TCOON:518:1,2017-03-04T22:18:00Z,29.5150,-94.5133,1.629,1111122 
TCOON,ioos:station:TCOON:518:1,2017-03-04T23:18:00Z,29.5150,-94.5133,1.574,1111122 
TCOON,ioos:station:TCOON:518:1,2017-03-05T00:18:00Z,29.5150,-94.5133,1.524,1111122 
TCOON,ioos:station:TCOON:518:1,2017-03-05T01:18:00Z,29.5150,-94.5133,1.503,1111122 
TCOON,ioos:station:TCOON:518:1,2017-03-05T02:18:00Z,29.5150,-94.5133,1.457,1111122 
TCOON,ioos:station:TCOON:518:1,2017-03-05T03:18:00Z,29.5150,-94.5133,1.465,1111122 
TCOON,ioos:station:TCOON:518:1,2017-03-05T04:18:00Z,29.5150,-94.5133,1.545,1111122 
TCOON,ioos:station:TCOON:518:1,2017-03-05T05:18:00Z,29.5150,-94.5133,1.502,1111122 
TCOON,ioos:station:TCOON:518:1,2017-03-05T06:24:00Z,29.5150,-94.5133,1.402,1111122 
TCOON,ioos:station:TCOON:518:1,2017-03-05T07:18:00Z,29.5150,-94.5133,1.316,1111122 
TCOON,ioos:station:TCOON:518:1,2017-03-05T08:18:00Z,29.5150,-94.5133,1.217,1111122 
TCOON,ioos:station:TCOON:518:1,2017-03-05T09:18:00Z,29.5150,-94.5133,1.173,1111122 
TCOON,ioos:station:TCOON:518:1,2017-03-05T10:18:00Z,29.5150,-94.5133,1.2,1111122 
TCOON,ioos:station:TCOON:518:1,2017-03-05T11:18:00Z,29.5150,-94.5133,1.299,1111122 
TCOON,ioos:station:TCOON:518:1,2017-03-05T12:18:00Z,29.5150,-94.5133,1.404,1111122 
TCOON,ioos:station:TCOON:518:1,2017-03-05T13:18:00Z,29.5150,-94.5133,1.433,1111122 
TCOON,ioos:station:TCOON:518:1,2017-03-05T14:18:00Z,29.5150,-94.5133,1.385,1111122 
TCOON,ioos:station:TCOON:518:1,2017-03-05T15:18:00Z,29.5150,-94.5133,1.385,1111122 
TCOON,ioos:station:TCOON:518:1,2017-03-05T16:18:00Z,29.5150,-94.5133,1.422,1111122 
TCOON,ioos:station:TCOON:518:1,2017-03-05T17:18:00Z,29.5150,-94.5133,1.546,1111122 
TCOON,ioos:station:TCOON:518:1,2017-03-05T18:18:00Z,29.5150,-94.5133,1.59,1111122 
TCOON,ioos:station:TCOON:518:1,2017-03-05T19:18:00Z,29.5150,-94.5133,1.627,1111122 
TCOON,ioos:station:TCOON:518:1,2017-03-05T20:18:00Z,29.5150,-94.5133,1.652,1111122 
TCOON,ioos:station:TCOON:518:1,2017-03-05T21:18:00Z,29.5150,-94.5133,1.639,1111122 
TCOON,ioos:station:TCOON:518:1,2017-03-05T22:18:00Z,29.5150,-94.5133,1.672,1111122 
TCOON,ioos:station:TCOON:518:1,2017-03-05T23:18:00Z,29.5150,-94.5133,1.712,1111122 
TCOON,ioos:station:TCOON:518:1,2017-03-06T00:18:00Z,29.5150,-94.5133,1.711,1111122 
TCOON,ioos:station:TCOON:518:1,2017-03-06T01:18:00Z,29.5150,-94.5133,1.682,1111122 
TCOON,ioos:station:TCOON:518:1,2017-03-06T02:18:00Z,29.5150,-94.5133,1.638,1111122 
TCOON,ioos:station:TCOON:518:1,2017-03-06T03:18:00Z,29.5150,-94.5133,1.608,1111122 
TCOON,ioos:station:TCOON:518:1,2017-03-06T04:18:00Z,29.5150,-94.5133,1.615,1111122 
TCOON,ioos:station:TCOON:518:1,2017-03-06T05:18:00Z,29.5150,-94.5133,1.634,1111122 
TCOON,ioos:station:TCOON:518:1,2017-03-06T06:18:00Z,29.5150,-94.5133,1.643,1111122 
TCOON,ioos:station:TCOON:518:1,2017-03-06T07:18:00Z,29.5150,-94.5133,1.624,1111122 
TCOON,ioos:station:TCOON:518:1,2017-03-06T08:18:00Z,29.5150,-94.5133,1.549,1111122 
TCOON,ioos:station:TCOON:518:1,2017-03-06T09:18:00Z,29.5150,-94.5133,1.491,1111122 
TCOON,ioos:station:TCOON:518:1,2017-03-06T10:18:00Z,29.5150,-94.5133,1.423,1111122 
TCOON,ioos:station:TCOON:518:1,2017-03-06T11:18:00Z,29.5150,-94.5133,1.356,1111122 
TCOON,ioos:station:TCOON:518:1,2017-03-06T12:18:00Z,29.5150,-94.5133,1.297,1111122 
TCOON,ioos:station:TCOON:518:1,2017-03-06T13:18:00Z,29.5150,-94.5133,1.261,1111122 
TCOON,ioos:station:TCOON:518:1,2017-03-06T14:18:00Z,29.5150,-94.5133,1.232,1111122 
TCOON,ioos:station:TCOON:518:1,2017-03-06T15:18:00Z,29.5150,-94.5133,1.241,1111122 
TCOON,ioos:station:TCOON:518:1,2017-03-06T16:18:00Z,29.5150,-94.5133,1.312,1111122 
TCOON,ioos:station:TCOON:518:1,2017-03-06T17:18:00Z,29.5150,-94.5133,1.409,1111122 
TCOON,ioos:station:TCOON:518:1,2017-03-06T18:18:00Z,29.5150,-94.5133,1.499,1111122 
TCOON,ioos:station:TCOON:518:1,2017-03-06T19:18:00Z,29.5150,-94.5133,1.566,1111122 
TCOON,ioos:station:TCOON:518:1,2017-03-06T20:18:00Z,29.5150,-94.5133,1.639,1111122 
TCOON,ioos:station:TCOON:518:1,2017-03-06T21:18:00Z,29.5150,-94.5133,1.68,1111122 
TCOON,ioos:station:TCOON:518:1,2017-03-06T22:18:00Z,29.5150,-94.5133,1.688,1111122 
TCOON,ioos:station:TCOON:518:1,2017-03-06T23:18:00Z,29.5150,-94.5133,1.701,1111122 
TCOON,ioos:station:TCOON:518:1,2017-03-07T00:18:00Z,29.5150,-94.5133,1.664,1111122 
TCOON,ioos:station:TCOON:518:1,2017-03-07T01:18:00Z,29.5150,-94.5133,1.663,1111122 
TCOON,ioos:station:TCOON:518:1,2017-03-07T02:18:00Z,29.5150,-94.5133,1.644,1111122 
TCOON,ioos:station:TCOON:518:1,2017-03-07T03:18:00Z,29.5150,-94.5133,1.65,1111122 
TCOON,ioos:station:TCOON:518:1,2017-03-07T04:18:00Z,29.5150,-94.5133,1.655,1111122 
TCOON,ioos:station:TCOON:518:1,2017-03-07T05:18:00Z,29.5150,-94.5133,1.686,1111122 
TCOON,ioos:station:TCOON:518:1,2017-03-07T06:18:00Z,29.5150,-94.5133,1.712,1111122 
TCOON,ioos:station:TCOON:518:1,2017-03-07T07:18:00Z,29.5150,-94.5133,1.744,1111122 
TCOON,ioos:station:TCOON:518:1,2017-03-07T08:18:00Z,29.5150,-94.5133,1.711,1111122 
TCOON,ioos:station:TCOON:518:1,2017-03-07T09:18:00Z,29.5150,-94.5133,1.652,1111122 
TCOON,ioos:station:TCOON:518:1,2017-03-07T10:18:00Z,29.5150,-94.5133,1.558,1111122 
TCOON,ioos:station:TCOON:518:1,2017-03-07T11:18:00Z,29.5150,-94.5133,1.493,1111122 
TCOON,ioos:station:TCOON:518:1,2017-03-07T12:18:00Z,29.5150,-94.5133,1.438,1111122 
TCOON,ioos:station:TCOON:518:1,2017-03-07T13:18:00Z,29.5150,-94.5133,1.378,1111122 
TCOON,ioos:station:TCOON:518:1,2017-03-07T14:18:00Z,29.5150,-94.5133,1.333,1111122 
TCOON,ioos:station:TCOON:518:1,2017-03-07T15:18:00Z,29.5150,-94.5133,1.323,1111122 
TCOON,ioos:station:TCOON:518:1,2017-03-07T16:18:00Z,29.5150,-94.5133,1.333,1111122 
TCOON,ioos:station:TCOON:518:1,2017-03-07T17:18:00Z,29.5150,-94.5133,1.379,1111122 
TCOON,ioos:station:TCOON:518:1,2017-03-07T18:24:00Z,29.5150,-94.5133,1.488,1111122 
TCOON,ioos:station:TCOON:518:1,2017-03-07T19:24:00Z,29.5150,-94.5133,1.587,1111122 
TCOON,ioos:station:TCOON:518:1,2017-03-07T20:18:00Z,29.5150,-94.5133,1.64,1111122 
TCOON,ioos:station:TCOON:518:1,2017-03-07T21:18:00Z,29.5150,-94.5133,1.663,1111122 
TCOON,ioos:station:TCOON:518:1,2017-03-07T22:18:00Z,29.5150,-94.5133,1.687,1111122 
TCOON,ioos:station:TCOON:518:1,2017-03-08T00:18:00Z,29.5150,-94.5133,1.753,1111122 
TCOON,ioos:station:TCOON:518:1,2017-03-08T01:18:00Z,29.5150,-94.5133,1.666,1111122 
TCOON,ioos:station:TCOON:518:1,2017-03-08T02:18:00Z,29.5150,-94.5133,1.585,1111122 
TCOON,ioos:station:TCOON:518:1,2017-03-08T03:18:00Z,29.5150,-94.5133,1.52,1111122 
TCOON,ioos:station:TCOON:518:1,2017-03-08T04:18:00Z,29.5150,-94.5133,1.439,1111122 
TCOON,ioos:station:TCOON:518:1,2017-03-08T05:18:00Z,29.5150,-94.5133,1.353,1111122 
TCOON,ioos:station:TCOON:518:1,2017-03-08T06:18:00Z,29.5150,-94.5133,1.327,1111122 
TCOON,ioos:station:TCOON:518:1,2017-03-08T07:18:00Z,29.5150,-94.5133,1.357,1111122 
TCOON,ioos:station:TCOON:518:1,2017-03-08T08:18:00Z,29.5150,-94.5133,1.406,1111122 
TCOON,ioos:station:TCOON:518:1,2017-03-08T09:18:00Z,29.5150,-94.5133,1.384,1111122 
TCOON,ioos:station:TCOON:518:1,2017-03-08T10:18:00Z,29.5150,-94.5133,1.305,1111122 
TCOON,ioos:station:TCOON:518:1,2017-03-08T11:18:00Z,29.5150,-94.5133,1.242,1111122 
TCOON,ioos:station:TCOON:518:1,2017-03-08T12:18:00Z,29.5150,-94.5133,1.203,1111122 
TCOON,ioos:station:TCOON:518:1,2017-03-08T13:18:00Z,29.5150,-94.5133,1.164,1111122 
TCOON,ioos:station:TCOON:518:1,2017-03-08T14:18:00Z,29.5150,-94.5133,1.113,1111122 
TCOON,ioos:station:TCOON:518:1,2017-03-08T15:18:00Z,29.5150,-94.5133,1.104,1111122 
TCOON,ioos:station:TCOON:518:1,2017-03-08T16:18:00Z,29.5150,-94.5133,1.111,1111122 
TCOON,ioos:station:TCOON:518:1,2017-03-08T17:18:00Z,29.5150,-94.5133,1.097,1111122 
TCOON,ioos:station:TCOON:518:1,2017-03-08T18:18:00Z,29.5150,-94.5133,1.063,1111122 
TCOON,ioos:station:TCOON:518:1,2017-03-08T19:18:00Z,29.5150,-94.5133,1.087,1111122 
TCOON,ioos:station:TCOON:518:1,2017-03-08T20:18:00Z,29.5150,-94.5133,1.247,1111122 
TCOON,ioos:station:TCOON:518:1,2017-03-08T21:18:00Z,29.5150,-94.5133,1.432,1111122 
TCOON,ioos:station:TCOON:518:1,2017-03-08T22:18:00Z,29.5150,-94.5133,1.541,1111122 
TCOON,ioos:station:TCOON:518:1,2017-03-08T23:18:00Z,29.5150,-94.5133,1.583,1111122 
TCOON,ioos:station:TCOON:518:1,2017-03-09T00:18:00Z,29.5150,-94.5133,1.613,1111122 
TCOON,ioos:station:TCOON:518:1,2017-03-09T01:18:00Z,29.5150,-94.5133,1.601,1111122 
TCOON,ioos:station:TCOON:518:1,2017-03-09T02:18:00Z,29.5150,-94.5133,1.561,1111122 
TCOON,ioos:station:TCOON:518:1,2017-03-09T03:18:00Z,29.5150,-94.5133,1.544,1111122 
TCOON,ioos:station:TCOON:518:1,2017-03-09T04:18:00Z,29.5150,-94.5133,1.529,1111122 
TCOON,ioos:station:TCOON:518:1,2017-03-09T05:18:00Z,29.5150,-94.5133,1.517,1111122 
TCOON,ioos:station:TCOON:518:1,2017-03-09T06:18:00Z,29.5150,-94.5133,1.519,1111122 
TCOON,ioos:station:TCOON:518:1,2017-03-09T07:18:00Z,29.5150,-94.5133,1.524,1111122 
TCOON,ioos:station:TCOON:518:1,2017-03-09T08:18:00Z,29.5150,-94.5133,1.529,1111122 
TCOON,ioos:station:TCOON:518:1,2017-03-09T09:18:00Z,29.5150,-94.5133,1.547,1111122 
TCOON,ioos:station:TCOON:518:1,2017-03-09T10:18:00Z,29.5150,-94.5133,1.511,1111122 
TCOON,ioos:station:TCOON:518:1,2017-03-09T11:18:00Z,29.5150,-94.5133,1.448,1111122 
TCOON,ioos:station:TCOON:518:1,2017-03-09T12:18:00Z,29.5150,-94.5133,1.412,1111122 
TCOON,ioos:station:TCOON:518:1,2017-03-09T13:18:00Z,29.5150,-94.5133,1.351,1111122 
TCOON,ioos:station:TCOON:518:1,2017-03-09T14:18:00Z,29.5150,-94.5133,1.298,1111122 
TCOON,ioos:station:TCOON:518:1,2017-03-09T15:18:00Z,29.5150,-94.5133,1.22,1111122 
TCOON,ioos:station:TCOON:518:1,2017-03-09T16:18:00Z,29.5150,-94.5133,1.199,1111122 
TCOON,ioos:station:TCOON:518:1,2017-03-09T17:18:00Z,29.5150,-94.5133,1.166,1111122 
TCOON,ioos:station:TCOON:518:1,2017-03-09T18:18:00Z,29.5150,-94.5133,1.158,1111122 
TCOON,ioos:station:TCOON:518:1,2017-03-09T19:18:00Z,29.5150,-94.5133,1.208,1111122 
TCOON,ioos:station:TCOON:518:1,2017-03-09T20:18:00Z,29.5150,-94.5133,1.316,1111122 
TCOON,ioos:station:TCOON:518:1,2017-03-09T21:18:00Z,29.5150,-94.5133,1.419,1111122 
TCOON,ioos:station:TCOON:518:1,2017-03-09T22:18:00Z,29.5150,-94.5133,1.481,1111122 
TCOON,ioos:station:TCOON:518:1,2017-03-09T23:18:00Z,29.5150,-94.5133,1.503,1111122 
TCOON,ioos:station:TCOON:518:1,2017-03-10T00:18:00Z,29.5150,-94.5133,1.515,1111122 
TCOON,ioos:station:TCOON:518:1,2017-03-10T01:18:00Z,29.5150,-94.5133,1.535,1111122 
TCOON,ioos:station:TCOON:518:1,2017-03-10T02:18:00Z,29.5150,-94.5133,1.544,1111122 
TCOON,ioos:station:TCOON:518:1,2017-03-10T03:18:00Z,29.5150,-94.5133,1.547,1111122 
TCOON,ioos:station:TCOON:518:1,2017-03-10T04:24:00Z,29.5150,-94.5133,1.531,1111122 
TCOON,ioos:station:TCOON:518:1,2017-03-10T05:18:00Z,29.5150,-94.5133,1.497,1111122 
TCOON,ioos:station:TCOON:518:1,2017-03-10T07:00:00Z,29.5150,-94.5133,1.463,1111122 
TCOON,ioos:station:TCOON:518:1,2017-03-10T07:18:00Z,29.5150,-94.5133,1.459,1111122 
TCOON,ioos:station:TCOON:518:1,2017-03-10T08:18:00Z,29.5150,-94.5133,1.436,1111122 
TCOON,ioos:station:TCOON:518:1,2017-03-10T09:18:00Z,29.5150,-94.5133,1.471,1111122 
TCOON,ioos:station:TCOON:518:1,2017-03-10T10:18:00Z,29.5150,-94.5133,1.52,1111122 
TCOON,ioos:station:TCOON:518:1,2017-03-10T11:18:00Z,29.5150,-94.5133,1.477,1111122 
TCOON,ioos:station:TCOON:518:1,2017-03-10T12:18:00Z,29.5150,-94.5133,1.405,1111122 
TCOON,ioos:station:TCOON:518:1,2017-03-10T13:18:00Z,29.5150,-94.5133,1.333,1111122 
TCOON,ioos:station:TCOON:518:1,2017-03-10T14:18:00Z,29.5150,-94.5133,1.256,1111122 
TCOON,ioos:station:TCOON:518:1,2017-03-10T15:18:00Z,29.5150,-94.5133,1.188,1111122 
TCOON,ioos:station:TCOON:518:1,2017-03-10T16:18:00Z,29.5150,-94.5133,1.175,1111122 
TCOON,ioos:station:TCOON:518:1,2017-03-10T17:18:00Z,29.5150,-94.5133,1.098,1111122 
TCOON,ioos:station:TCOON:518:1,2017-03-10T18:18:00Z,29.5150,-94.5133,1.081,1111122 
TCOON,ioos:station:TCOON:518:1,2017-03-10T19:18:00Z,29.5150,-94.5133,1.067,1111122 
TCOON,ioos:station:TCOON:518:1,2017-03-10T20:18:00Z,29.5150,-94.5133,1.125,1111122 
TCOON,ioos:station:TCOON:518:1,2017-03-10T21:18:00Z,29.5150,-94.5133,1.241,1111122 
TCOON,ioos:station:TCOON:518:1,2017-03-10T22:18:00Z,29.5150,-94.5133,1.322,1111122 
TCOON,ioos:station:TCOON:518:1,2017-03-10T23:18:00Z,29.5150,-94.5133,1.394,1111122 
TCOON,ioos:station:TCOON:518:1,2017-03-11T00:18:00Z,29.5150,-94.5133,1.423,1111122 
TCOON,ioos:station:TCOON:518:1,2017-03-11T01:18:00Z,29.5150,-94.5133,1.413,1111122 
TCOON,ioos:station:TCOON:518:1,2017-03-11T02:18:00Z,29.5150,-94.5133,1.43,1111122 
TCOON,ioos:station:TCOON:518:1,2017-03-11T04:06:00Z,29.5150,-94.5133,1.444,1111122 
TCOON,ioos:station:TCOON:518:1,2017-03-11T05:18:00Z,29.5150,-94.5133,1.352,1111122 
TCOON,ioos:station:TCOON:518:1,2017-03-11T06:24:00Z,29.5150,-94.5133,1.33,1111122 
TCOON,ioos:station:TCOON:518:1,2017-03-11T07:18:00Z,29.5150,-94.5133,1.334,1111122 
TCOON,ioos:station:TCOON:518:1,2017-03-11T08:18:00Z,29.5150,-94.5133,1.33,1111122 
TCOON,ioos:station:TCOON:518:1,2017-03-11T09:18:00Z,29.5150,-94.5133,1.356,1111122 
TCOON,ioos:station:TCOON:518:1,2017-03-11T10:18:00Z,29.5150,-94.5133,1.363,1111122 
TCOON,ioos:station:TCOON:518:1,2017-03-11T11:18:00Z,29.5150,-94.5133,1.366,1111122 
TCOON,ioos:station:TCOON:518:1,2017-03-11T12:18:00Z,29.5150,-94.5133,1.346,1111122 
TCOON,ioos:station:TCOON:518:1,2017-03-11T13:18:00Z,29.5150,-94.5133,1.247,1111122 
TCOON,ioos:station:TCOON:518:1,2017-03-11T14:18:00Z,29.5150,-94.5133,1.193,1111122 
TCOON,ioos:station:TCOON:518:1,2017-03-11T15:18:00Z,29.5150,-94.5133,1.166,1111122 
TCOON,ioos:station:TCOON:518:1,2017-03-11T16:18:00Z,29.5150,-94.5133,1.12,1111122 
TCOON,ioos:station:TCOON:518:1,2017-03-11T17:18:00Z,29.5150,-94.5133,1.031,1111122 
TCOON,ioos:station:TCOON:518:1,2017-03-11T18:18:00Z,29.5150,-94.5133,0.971,1111122 
TCOON,ioos:station:TCOON:518:1,2017-03-11T19:18:00Z,29.5150,-94.5133,0.947,1111122 
TCOON,ioos:station:TCOON:518:1,2017-03-11T20:18:00Z,29.5150,-94.5133,0.982,1111122 
TCOON,ioos:station:TCOON:518:1,2017-03-11T21:18:00Z,29.5150,-94.5133,1.102,1111122 
TCOON,ioos:station:TCOON:518:1,2017-03-11T22:18:00Z,29.5150,-94.5133,1.137,1111122 
TCOON,ioos:station:TCOON:518:1,2017-03-11T23:18:00Z,29.5150,-94.5133,1.235,1111122 
TCOON,ioos:station:TCOON:518:1,2017-03-12T00:18:00Z,29.5150,-94.5133,1.305,1111122 
TCOON,ioos:station:TCOON:518:1,2017-03-12T01:18:00Z,29.5150,-94.5133,1.409,1111122 
TCOON,ioos:station:TCOON:518:1,2017-03-12T02:18:00Z,29.5150,-94.5133,1.451,1111122 
TCOON,ioos:station:TCOON:518:1,2017-03-12T03:18:00Z,29.5150,-94.5133,1.432,1111122 
TCOON,ioos:station:TCOON:518:1,2017-03-12T04:18:00Z,29.5150,-94.5133,1.401,1111122 
TCOON,ioos:station:TCOON:518:1,2017-03-12T05:18:00Z,29.5150,-94.5133,1.43,1111122 
TCOON,ioos:station:TCOON:518:1,2017-03-12T06:18:00Z,29.5150,-94.5133,1.444,1111122 
TCOON,ioos:station:TCOON:518:1,2017-03-12T07:18:00Z,29.5150,-94.5133,1.469,1111122 
TCOON,ioos:station:TCOON:518:1,2017-03-12T08:18:00Z,29.5150,-94.5133,1.433,1111122 
TCOON,ioos:station:TCOON:518:1,2017-03-12T09:18:00Z,29.5150,-94.5133,1.35,1111122 
TCOON,ioos:station:TCOON:518:1,2017-03-12T10:18:00Z,29.5150,-94.5133,1.353,1111122 
TCOON,ioos:station:TCOON:518:1,2017-03-12T11:18:00Z,29.5150,-94.5133,1.385,1111122 
TCOON,ioos:station:TCOON:518:1,2017-03-12T12:18:00Z,29.5150,-94.5133,1.335,1111122 
TCOON,ioos:station:TCOON:518:1,2017-03-12T13:18:00Z,29.5150,-94.5133,1.274,1111122 
TCOON,ioos:station:TCOON:518:1,2017-03-12T14:18:00Z,29.5150,-94.5133,1.209,1111122 
TCOON,ioos:station:TCOON:518:1,2017-03-12T15:18:00Z,29.5150,-94.5133,1.17,1111122 
TCOON,ioos:station:TCOON:518:1,2017-03-12T16:18:00Z,29.5150,-94.5133,1.1,1111122 
TCOON,ioos:station:TCOON:518:1,2017-03-12T17:18:00Z,29.5150,-94.5133,1.062,1111122 
TCOON,ioos:station:TCOON:518:1,2017-03-12T18:18:00Z,29.5150,-94.5133,1.035,1111122 
TCOON,ioos:station:TCOON:518:1,2017-03-12T19:18:00Z,29.5150,-94.5133,1.046,1111122 
TCOON,ioos:station:TCOON:518:1,2017-03-12T20:18:00Z,29.5150,-94.5133,1.075,1111122 
TCOON,ioos:station:TCOON:518:1,2017-03-12T21:18:00Z,29.5150,-94.5133,1.118,1111122 
TCOON,ioos:station:TCOON:518:1,2017-03-12T22:18:00Z,29.5150,-94.5133,1.219,1111122 
TCOON,ioos:station:TCOON:518:1,2017-03-12T23:18:00Z,29.5150,-94.5133,1.369,1111122 
TCOON,ioos:station:TCOON:518:1,2017-03-13T00:18:00Z,29.5150,-94.5133,1.424,1111122 